Regional Weather Roundup
Issued by NWS

Home | Current Version | Previous Version | Text Only | Print | Product List | Glossary Off
Versions: 1 2 3 4 5 6 7 8 9 10 11 12 13 14 15 16 17 18 19 20 21 22 23 24 25 26 27 28 29 30 31 32 33 34 35 36 37 38 39 40 41 42 43 44 45 46 47 48 49 50

000
ASUS43 KMKX 172000
RWRWI

WISCONSIN REGIONAL WEATHER ROUNDUP
NATIONAL WEATHER SERVICE MILWAUKEE/SULLIVAN WI
200 PM CST SAT FEB 17 2018

NOTE: "FAIR" INDICATES FEW OR NO CLOUDS BELOW 12,000 FEET WITH NO
SIGNIFICANT WEATHER AND/OR OBSTRUCTIONS TO VISIBILITY.

WIZ001-002-006>008-014>016-023>028-172100-
NORTHWEST WISCONSIN

CITY           SKY/WX    TMP DP  RH WIND       PRES   REMARKS
SUPERIOR ARPT  PTSUNNY   31  15  51 W15G24    29.81S WCI  20
ASHLAND        FAIR      33  15  47 W14G21    29.77F WCI  23
HAYWARD        FAIR      33  17  51 W8        29.77F WCI  26
SIREN          FAIR      33  15  46 W13G18    29.82F WCI  24
CUMBERLAND     FAIR      30  19  64 W12       29.81F WCI  21
RICE LAKE      FAIR      31  22  69 W13       29.84F WCI  21
CHETEK         PTSUNNY   31  22  69 SW7       29.83F WCI  24
LADYSMITH      CLOUDY    28  21  74 SW8       29.83F WCI  20
EAU CLAIRE     CLOUDY    27  21  80 SW9       29.85F WCI  17
MENOMONIE      FAIR      31  23  72 SW8       29.86F WCI  23
NEW RICHMOND   FAIR      32  22  65 W10       29.85S WCI  24
OSCEOLA        FAIR      35  21  58 SW8       29.88S WCI  28
$$

WIZ003>005-009-010-017-018-172100-
NORTH CENTRAL WISCONSIN

CITY           SKY/WX    TMP DP  RH WIND       PRES   REMARKS
MANITOWISH WTR FAIR      27  17  64 SW9G17    29.73F WCI  18
ARBOR VITAE    FAIR      29  20  68 SW12G17   29.74F WCI  20
WOODRUFF       FAIR      29  20  68 SW12G17   29.74F WCI  20
RHINELANDER    CLOUDY    25  18  74 SW8G20    29.77F WCI  16
EAGLE RIVER    FAIR      27  16  64 SW13      29.73F WCI  16
LAND O LAKES   FAIR      30  16  56 SW10G16   29.74F WCI  21
PHILLIPS       PTSUNNY   26  19  76 SW9       29.77F WCI  16
TOMAHAWK       CLOUDY    25  17  71 SW3       29.80F
MEDFORD        CLOUDY    23  19  83 SW10      29.81S WCI  12
MERRILL        MIX PCPN  24  19  84 SW7       29.83F WCI  15
$$

WIZ029-030-035-036-043>047-172100-
CENTRAL WISCONSIN

CITY           SKY/WX    TMP DP  RH WIND       PRES   REMARKS
WAUSAU         LGT SNOW  23  20  88 SW9       29.81F VSB 1   WCI  13
MOSINEE        LGT SNOW  23  21  93 SW7       29.84F VSB 1   WCI  15
MARSHFIELD     LGT SNOW  24  21  88 W10       29.82F FOG     WCI  14
STEVENS POINT  MIX PCPN  22  21  96 SW8       29.86F VSB 1   WCI  12
WAUPACA        LGT SNOW  27  22  81 SW6       29.88F WCI  21
WAUTOMA        LGT SNOW  26  22  84 SW7       29.89S FOG     WCI  18
WISC RAPIDS    LGT SNOW  25  20  81 SW6       29.87F VSB 1   WCI  18
CAMP DOUGLAS   LGT SNOW  27  23  86 SW9       29.88S FOG     WCI  17
$$

WIZ011>013-019>022-031-037>040-048>050-172100-
NORTHEAST WISCONSIN

CITY           SKY/WX    TMP DP  RH WIND       PRES   REMARKS
ANTIGO         MIX PCPN  22  19  89 SW10      29.81S WCI  11
SHAWANO        LGT SNOW  27  23  83 SW5       29.86F WCI  22
OCONTO         CLOUDY    25  19  80 W10G16    29.86F WCI  14
STURGEON BAY   LGT SNOW  23  19  85 SW13      29.86F FOG     WCI  11
GREEN BAY      LGT SNOW  25  20  81 SW9       29.88F VSB 1   WCI  15
MANITOWOC      MIX PCPN  30  15  53 W14       29.89F WCI  19
APPLETON       NOT AVBL
CLINTONVILLE   LGT SNOW  25  21  85 SW7       29.86F VSB 3/4 WCI  17
OSHKOSH        LGT SNOW  24  22  91 SW6       29.88F FOG     WCI  17
$$

WIZ032>034-041-042-053>061-172100-
SOUTHWEST WISCONSIN

CITY           SKY/WX    TMP DP  RH WIND       PRES   REMARKS
LA CROSSE      CLOUDY    30  23  75 W6        29.90F WCI  24
SPARTA         LGT SNOW  28  23  84 W8        29.90S WCI  19
VIROQUA        CLOUDY    25  24  95 W7        29.87F WCI  17
BOSCOBEL       SNOW      28  25  88 VRB3      29.92S VSB 1/2
PRAIRIE DU CHI LGT SNOW  27  24  89 CALM      29.92F VSB 1
PLATTEVILLE    CLOUDY    28  27  96 SW5       29.90F WCI  23
$$

WIZ056-057-062-063-064-067-068-172100-
SOUTH CENTRAL WISCONSIN

CITY           SKY/WX    TMP DP  RH WIND       PRES   REMARKS
REEDSBURG      LGT SNOW  25  22  89 W8        29.89S VSB 1   WCI  16
BARABOO/DELLS  LGT SNOW  27  19  71 W12       29.88S WCI  17
LONE ROCK      SNOW      26  23  88 SW5       29.91F VSB 1/4 WCI  20
MINERAL POINT  LGT SNOW  28  28 100 CALM      29.88F
MADISON        LGT SNOW  29  19  66 S8        29.89F WCI  21
MIDDLETON      CLOUDY    30  25  81 SW6       29.89F WCI  24
WATERTOWN      LGT SNOW  27  23  85 W7        29.93R WCI  19
MONROE         SNOW      30  27  86 SW10      29.89S VSB 1/2 WCI  21
JANESVILLE     CLOUDY    32  23  69 SW7       29.90F WCI  26
$$

WIZ051-052-058>065-066-070>072-172100-
SOUTHEAST WISCONSIN

CITY           SKY/WX    TMP DP  RH WIND       PRES   REMARKS
MILWAUKEE      CLOUDY    33  19  56 S8        29.91F WCI  26
WAUKESHA       CLOUDY    28  19  69 CALM      29.90F
MILWAUKEE/TIMM LGT SNOW  32  16  51 SW6       29.91F WCI  26
RACINE         CLOUDY    33  22  63 S8        29.94F WCI  26
BURLINGTON     FAIR      31  23  70 S8        29.91F WCI  24
KENOSHA        CLOUDY    34  23  64 S9        29.91F WCI  27
FOND DU LAC    LGT SNOW  25  20  81 S10       29.88F VSB 3/4 WCI  15
SHEBOYGAN      CLOUDY    31  15  52 SW10      29.89F WCI  22
WEST BEND      LGT SNOW  30  21  69 W10       29.90F WCI  21
JUNEAU         LGT SNOW  24  22  91 S7        29.91F VSB 3/4 WCI  16
$$

LSZ147-162-172100-
LAKE SUPERIOR

STATION/POSITION TIME  TEMP    WIND        PRES    WAVE
                       AIR SEA DIR/SP/G            HT/PER
                 (UTC) (F)     (DEG/KT/KT) (MB)    (FT/S)
DEVILS ISLAND    1900   26     240/ 19/ 24 1008.6F
SAXON HARBOR     1930   33     220/  9/ 17 1007.8S
$$

LMZ867-665-643>646-172100-
LAKE MICHIGAN

STATION/POSITION TIME  TEMP    WIND        PRES    WAVE
                       AIR SEA DIR/SP/G            HT/PER
                 (UTC) (F)     (DEG/KT/KT) (MB)    (FT/S)
NORTHPORT PIER   1940   23                 1010.5F
KEWAUNEE LAKESHO 1930   27     250/  8/ 12 1011.4F
SHEBOYGAN LAKESH 1900   29     220/ 10/ 12 1013.8F
PORT WASHINGTON  1930   33     230/  7/ 13 1013.9F
MILWAUKEE LAKESH 1930   32     210/  7/  9   N/A
KENOSHA   LAKESH 1900   32     210/  4/  7 1014.2
$$

TC  - TEMPERATURE IN CELSIUS
VSB - VISIBILITY IN STATUTE MILES
WCI - WIND CHILL INDEX
HX  - HEAT INDEX





USA.gov is the U.S. government's official web portal to all federal, state and local government web resources and services.